Вернуться в каталог

KUIPER-00304

АктивенСвязьLEO
NORAD 68599·PAYLOAD·🇺🇸 United States

Запущен Apr 4, 2026 с Cape Canaveral Space Force Station

Loading…

Ближайшие Пролёты (ближайшие 24 часа)

TLE

СвежийSource: CelesTrak SupGP

Эпоха: Sep 14, 2026, 23:30 UTC

1 68599C 26072AC  26257.97960648  .00002416  00000+0  34212-3 0  2579
2 68599  51.8985 119.9652 0000564  22.0368 299.3512 14.76605587    15

Отслеживайте KUIPER-00304 в реальном времени с AllMySat

Download on the App Store